Temperature
19 20 20 21 21 21 20 18 18 19 19 20 19 20 20 21 21 20 20 20 20 20 20 19 19 19 19 18 18 18 17 17 17 16 16 16 16 15 15 15 15 14 14 14
20 20 20 21 21 21 20 20 19 19 19 20 21 21 20 20 20 20 20 20 20 20 20 19 19 19 19 18 18 18 17 17 17 16 16 16 15 15 15 15 14 14 14 14
18 20 20 20 20 21 21 21 20 20 20 20 20 19 20 20 20 20 20 20 20 20 20 20 19 19 19 18 18 18 17 17 16 16 16 16 15 15 15 15 14 14 14 13
17 19 19 19 20 21 21 21 20 20 20 20 21 21 22 22 21 21 21 21 20 20 20 20 19 19 19 18 18 18 17 17 16 16 16 15 15 15 15 14 14 14 14 13
16 17 18 20 21 21 21 20 20 20 20 21 22 21 20 21 22 22 21 21 21 21 20 20 19 19 19 18 18 17 17 17 16 16 16 15 15 15 14 14 14 13 13 13
16 18 18 19 20 22 21 20 20 20 20 20 20 18 18 21 21 21 21 21 21 20 20 20 19 19 19 18 18 17 17 17 16 16 16 15 15 15 14 14 13 13 13 13
16 17 17 18 20 21 19 19 20 21 21 20 20 20 21 21 21 21 21 21 20 20 20 20 19 19 18 18 18 18 17 17 16 16 16 15 15 14 14 14 13 13 13 12
15 16 17 19 20 19 19 20 21 21 21 21 21 21 21 21 21 21 20 20 20 20 20 19 19 19 18 18 18 17 17 17 16 16 15 15 14 14 14 13 13 13 13 12
16 17 18 20 20 21 21 21 21 21 21 21 21 21 21 21 21 20 20 20 20 20 19 19 19 18 18 18 18 17 17 16 16 15 15 15 14 14 13 13 13 13 12 12
16 17 18 20 21 21 21 21 21 21 21 21 21 20 20 20 20 20 19 19 19 19 19 18 18 18 18 18 17 17 16 16 15 15 15 14 14 14 13 13 13 12 12 12
16 16 18 19 20 20 20 21 21 21 21 21 20 20 20 20 20 19 19 19 19 18 18 18 18 18 17 17 17 16 16 16 15 15 14 14 14 13 13 13 13 12 12 12
15 17 16 18 20 20 20 20 20 20 20 20 20 20 20 19 19 19 19 18 18 18 18 18 17 17 17 17 16 16 16 15 15 15 14 14 14 13 13 12 12 12 12 11
19 19 19 19 19 19 19 20 19 19 19 19 19 19 19 19 19 18 18 18 18 17 17 17 17 17 16 16 16 16 15 15 15 14 14 14 13 13 13 12 12 12 11 11
18 18 18 18 18 19 19 19 19 19 19 19 19 18 18 18 18 18 18 17 17 17 17 17 16 16 16 16 16 15 15 15 14 14 14 13 13 13 12 12 12 11 11 11
17 18 18 18 18 18 18 18 18 18 18 18 18 18 18 18 18 17 17 17 17 16 16 16 16 16 16 15 15 15 15 14 14 14 13 13 13 12 12 12 11 11 11 11
17 17 17 17 17 17 17 17 17 17 17 17 17 17 17 17 17 17 17 17 16 16 16 16 15 15 15 15 15 14 14 14 14 13 13 13 12 12 12 11 11 11 11 11
16 16 16 16 16 16 16 17 17 16 17 17 17 17 16 16 16 16 16 16 16 16 16 15 15 15 15 14 14 14 14 13 13 13 12 12 12 12 11 11 11 11 11 10
16 16 16 16 16 16 16 16 16 16 16 16 16 16 16 16 16 16 15 15 15 15 15 15 15 15 14 14 14 13 13 13 12 12 12 12 11 11 11 11 10 10 10 10
15 15 15 15 15 15 15 15 15 15 15 15 15 15 15 15 15 15 15 15 15 15 14 14 14 14 14 14 13 13 13 12 12 12 11 11 11 11 10 10 10 10 10 9
14 14 14 14 14 15 14 14 15 15 15 15 15 15 15 15 14 14 14 14 14 14 14 14 13 13 13 13 13 12 12 12 11 11 11 11 10 10 10 10 10 9 9 9
13 13 13 13 14 14 14 14 14 14 14 14 14 14 14 14 14 14 13 13 13 13 13 13 13 13 13 12 12 12 11 11 11 10 10 10 10 10 9 9 9 9 9 8
12 12 12 13 13 13 13 13 13 13 13 13 13 13 13 13 13 13 13 13 13 12 12 12 12 12 12 12 11 11 11 10 10 10 10 9 9 9 9 9 8 8 8 8
11 12 12 12 12 12 12 12 12 12 12 12 12 12 12 12 12 12 12 12 12 12 11 11 11 11 11 11 10 10 10 10 10 9 9 9 9 8 8 8 8 8 7 7
11 11 11 11 11 11 11 11 12 12 12 12 12 12 11 11 11 11 11 11 11 11 11 11 10 10 10 10 10 10 9 9 9 9 8 8 8 8 8 7 7 7 7 7
10 10 10 10 10 10 10 11 11 11 11 11 11 11 11 11 11 10 10 10 10 10 10 10 10 9 9 9 9 9 8 8 8 8 8 8 7 7 7 7 7 6 6 6
9 9 9 9 9 9 10 10 10 10 10 10 10 10 10 10 10 10 9 9 9 9 9 9 9 8 8 8 8 8 8 7 7 7 7 7 7 7 6 6 6 6 6 6
8 8 8 8 9 9 9 9 9 9 9 9 9 9 9 9 9 9 8 8 8 8 8 8 8 7 7 7 7 7 7 7 6 6 6 6 6 6 6 6 5 5 5 5
Wind_Speed
5 5 4 5 6 6 7 8 8 8 8 9 10 11 11 11 12 12 12 13 14 14 12 11 10 9 9 9 9 9 9 8 7 6 6 5 5 4 4 4 4 4 4 4
2 3 3 4 6 7 8 7 7 5 7 8 7 7 8 10 13 13 13 14 14 14 14 13 13 11 10 10 9 9 9 8 7 7 6 6 5 5 5 4 4 4 4 3
3 4 1 4 7 7 6 6 7 8 9 5 5 9 12 13 14 14 14 14 14 14 15 14 13 13 12 11 9 10 9 8 8 7 7 6 6 5 4 4 4 4 3 3
3 1 4 8 5 6 6 6 6 6 6 7 9 10 10 11 15 14 13 13 13 13 13 12 11 11 11 10 10 10 9 9 8 8 7 6 6 5 4 3 4 3 2 2
4 3 5 6 5 3 5 4 4 5 4 5 5 4 0 5 10 14 14 12 12 12 12 12 12 12 12 11 10 10 10 9 9 9 8 7 6 5 4 4 3 3 2 2
4 4 5 7 7 3 4 3 5 3 4 4 6 4 5 5 6 8 9 9 10 9 9 10 10 11 12 11 11 11 11 10 9 9 9 8 7 5 3 4 4 3 2 2
4 4 6 7 5 3 4 6 4 3 4 6 6 7 6 6 6 8 9 9 9 10 10 11 11 12 12 11 12 11 9 9 8 8 8 7 6 4 4 4 3 3 2 1
4 4 6 5 1 3 6 3 2 2 3 4 4 3 5 6 7 7 8 8 10 10 9 9 11 13 12 11 10 9 9 9 8 7 7 6 6 4 4 5 4 2 1 1
7 6 5 3 4 4 4 3 2 2 2 4 4 4 5 6 6 7 8 8 8 10 9 8 9 12 12 10 9 10 10 9 8 7 6 6 6 6 4 4 3 2 2 2
2 4 4 2 1 1 2 2 2 2 3 4 4 5 5 6 6 6 6 7 7 9 10 8 8 9 10 10 11 11 11 9 8 7 6 5 5 5 5 5 4 3 3 3
2 3 2 3 2 1 0 2 2 2 2 4 5 5 6 6 6 6 5 5 7 9 10 9 8 8 8 10 11 11 10 8 7 7 7 6 5 4 5 6 6 6 5 5
5 5 4 5 4 1 2 2 2 2 1 2 4 5 5 6 5 6 6 6 7 8 8 8 9 9 8 9 11 11 9 8 7 6 5 5 5 2 1 3 5 7 7 6
5 4 4 4 2 1 2 2 2 3 4 3 2 4 6 5 5 6 6 7 8 8 8 9 9 8 8 9 10 10 9 8 6 6 6 6 5 5 3 2 2 3 5 6
2 2 1 1 1 1 2 2 2 2 3 3 3 4 4 4 5 6 7 7 7 8 8 8 9 8 8 9 9 8 8 9 8 6 6 6 6 5 5 4 3 3 4 5
2 2 4 2 1 1 2 3 4 3 3 3 3 4 5 5 6 6 6 6 7 7 7 8 8 8 8 9 9 9 7 6 5 5 5 5 5 5 4 5 4 3 2 2
2 1 3 3 2 1 2 3 3 2 2 2 3 3 4 4 4 4 5 7 8 8 8 8 8 8 8 8 8 7 6 8 7 5 5 5 5 5 5 4 4 4 4 4
3 2 2 2 2 2 2 3 4 3 3 3 4 4 4 4 4 3 3 4 6 7 7 7 7 7 8 9 8 6 6 7 8 5 5 6 5 6 5 5 5 5 5 5
5 6 5 6 5 3 3 3 3 3 3 3 4 5 5 6 5 5 4 4 4 3 3 4 5 6 7 8 7 6 6 6 5 6 5 5 5 5 5 5 6 5 4 4
2 3 3 3 3 3 3 3 3 3 3 3 5 5 5 5 5 4 4 5 5 4 4 4 6 6 6 6 7 5 6 6 5 5 5 6 5 5 5 5 5 5 5 4
0 1 1 1 1 2 2 2 2 2 3 4 4 4 4 3 4 4 4 4 5 5 4 4 5 5 5 6 7 5 6 6 6 5 4 5 5 5 5 5 5 5 5 5
1 1 0 1 0 1 2 2 2 2 3 4 4 5 4 4 4 4 4 2 2 2 3 5 4 3 4 4 6 4 5 5 5 5 5 5 5 5 5 5 5 5 5 5
1 0 0 0 0 1 1 1 2 2 2 2 2 3 4 3 3 3 3 3 2 2 3 3 3 4 4 4 4 4 4 4 5 4 4 4 5 5 5 5 5 5 5 5
1 1 1 0 1 1 0 0 2 2 3 3 3 3 4 4 4 4 3 2 2 3 3 2 3 4 4 3 3 3 4 4 4 4 5 5 5 5 5 5 5 5 4 5
0 0 0 0 1 2 1 0 1 2 2 2 3 4 4 3 2 2 3 3 3 3 2 2 4 4 4 2 2 2 3 3 4 4 4 4 4 4 4 5 5 4 5 5
1 1 1 2 1 1 0 0 1 2 2 2 1 1 2 3 3 2 2 3 4 3 2 3 4 4 3 2 2 2 2 3 3 3 3 3 4 4 4 4 4 5 5 5
1 1 1 1 1 1 1 1 2 1 2 2 1 1 1 1 3 3 3 3 4 4 3 2 2 3 2 1 1 1 2 1 1 1 2 2 3 3 3 3 4 4 4 4
1 1 1 0 0 0 1 1 2 1 2 2 2 1 2 2 3 3 3 3 3 3 2 2 2 2 1 1 1 1 1 1 1 1 1 1 2 2 3 4 3 3 3 3
Wind_Direction
214 217 199 218 225 214 197 194 193 225 224 234 213 198 191 182 174 171 175 177 178 178 178 176 175 173 170 168 164 157 150 151 154 150 140 129 123 119 109 103 104 105 96 84
244 243 221 246 246 230 223 213 211 220 245 240 214 187 178 176 175 178 182 184 183 181 179 179 179 175 171 170 168 156 154 157 153 145 140 136 133 122 109 101 98 97 97 98
240 281 9 273 240 220 216 206 187 212 235 222 176 184 188 184 180 183 186 186 184 183 182 182 182 177 176 174 163 156 157 157 155 151 149 150 141 127 126 120 107 102 101 104
185 99 230 245 244 195 198 221 209 211 216 190 190 191 191 185 183 186 186 185 185 182 181 180 177 172 168 161 160 160 161 162 160 154 153 150 141 142 141 132 128 127 128 131
149 193 262 287 277 200 187 249 245 209 219 210 185 116 300 205 187 186 186 183 181 180 177 173 172 168 159 160 161 163 168 170 167 160 157 155 156 158 152 141 143 151 152 147
147 170 225 252 267 240 130 267 284 194 193 188 131 149 234 212 180 178 175 171 169 163 157 164 170 162 158 164 166 176 179 175 167 163 162 167 169 163 154 150 160 158 159 183
167 199 252 265 282 75 135 237 266 192 176 161 172 197 205 174 166 172 170 166 160 156 162 170 163 156 160 166 180 182 170 161 160 165 167 166 161 156 150 145 141 147 167 242
157 179 247 277 109 165 218 231 200 172 168 165 174 161 149 153 157 155 155 156 155 158 165 164 160 159 165 178 178 158 153 155 161 164 166 160 152 150 145 144 143 154 167 283
185 206 234 231 197 225 174 166 183 159 168 151 145 148 149 153 154 155 155 156 156 157 156 157 164 166 172 176 157 149 150 157 161 160 159 155 157 157 150 151 157 175 184 222
186 254 261 263 250 75 141 166 182 156 140 139 149 154 151 153 154 152 151 152 149 150 153 163 169 168 169 161 156 152 157 162 161 159 159 157 160 165 166 172 176 186 197 213
202 263 330 313 274 225 146 82 72 82 124 149 146 156 163 163 163 160 153 151 152 158 164 167 162 159 156 154 153 155 159 162 162 164 166 167 171 182 184 195 191 192 203 201
216 227 204 245 251 229 151 154 158 138 111 149 158 165 164 168 170 163 158 152 152 155 156 156 153 155 155 154 155 156 161 165 167 167 167 165 163 165 217 202 212 212 210 205
209 223 208 230 228 177 154 170 166 158 158 156 152 152 154 159 162 157 155 155 160 162 159 155 152 156 160 158 156 160 167 171 169 170 171 171 174 177 194 267 276 235 224 217
205 133 133 176 211 221 137 136 125 120 131 136 140 136 137 137 145 156 167 171 163 157 157 157 157 166 166 159 158 161 164 172 172 177 177 180 186 190 189 194 219 258 255 238
245 184 187 186 114 76 96 100 95 88 88 90 112 134 143 149 163 172 169 158 149 151 159 161 165 174 167 160 160 164 165 170 174 176 178 181 183 186 190 197 205 216 233 258
226 127 125 124 125 129 111 116 126 145 142 137 141 156 165 162 158 149 149 151 153 165 172 171 178 180 167 162 163 168 175 177 170 172 176 178 181 186 194 201 207 211 220 225
167 182 178 181 194 204 196 190 183 184 179 171 176 164 144 133 128 138 160 168 167 170 172 175 182 177 170 168 168 175 175 181 178 172 181 187 190 197 201 202 209 217 227 223
193 195 191 189 196 206 221 213 196 190 193 191 163 151 151 157 170 181 181 161 143 149 177 182 175 168 170 172 173 173 174 178 182 187 190 194 197 199 198 202 209 216 231 231
189 188 191 189 192 186 192 207 208 199 188 165 156 167 176 177 179 177 161 152 162 186 212 196 173 163 169 180 172 169 171 177 184 191 194 195 196 198 201 205 210 214 217 220
81 157 177 195 187 176 185 201 196 182 180 164 156 159 166 175 165 156 153 173 200 204 194 180 170 169 174 178 168 167 173 180 187 191 193 196 201 207 208 212 215 217 218 220
61 71 92 151 192 207 196 186 175 188 189 166 163 175 180 179 161 149 148 181 249 189 159 162 164 173 174 172 163 164 172 180 185 189 194 200 205 209 213 216 220 223 226 230
73 104 177 172 126 274 247 196 173 174 166 160 160 160 153 153 151 148 169 191 200 155 142 154 165 173 172 161 160 169 178 186 190 192 195 199 203 211 220 222 224 228 230 231
150 157 152 175 181 226 326 151 166 167 170 174 170 164 168 174 167 159 183 218 171 149 137 154 162 159 156 149 156 174 184 189 193 198 202 205 209 214 221 226 227 230 235 240
53 43 44 70 92 90 67 316 190 166 165 166 170 164 153 145 151 191 173 157 147 134 135 148 139 132 126 138 156 179 193 198 203 204 205 209 215 219 223 226 232 238 240 241
130 85 78 80 88 98 200 135 99 112 114 116 114 132 156 161 165 175 152 148 143 129 124 128 122 114 114 136 166 191 209 215 210 203 206 214 222 226 228 229 234 239 242 245
144 171 226 215 192 189 173 132 125 131 128 124 105 111 123 135 141 138 131 130 125 122 121 118 114 110 118 134 165 189 194 196 196 209 218 222 225 228 233 238 244 244 247 250
108 117 121 60 357 134 143 144 147 167 168 159 157 151 131 124 124 122 118 117 114 112 108 102 103 109 111 106 100 96 112 129 159 190 217 230 232 236 241 246 252 259 261 260
Height
1514 1510 1510 1511 1511 1512 1516 1520 1527 1522 1518 1510 1506 1505 1507 1510 1513 1517 1520 1524 1527 1531 1534 1538 1542 1545 1548 1551 1554 1556 1558 1560 1562 1563 1564 1565 1566 1567 1567 1567 1567 1566 1566 1565
1513 1508 1508 1510 1507 1508 1509 1510 1513 1513 1512 1502 1501 1503 1505 1508 1511 1514 1517 1520 1524 1528 1531 1535 1539 1542 1545 1549 1552 1554 1556 1558 1560 1562 1563 1564 1565 1566 1566 1566 1566 1566 1565 1565
1521 1511 1510 1517 1506 1504 1504 1502 1505 1510 1505 1499 1500 1501 1503 1505 1507 1510 1513 1516 1520 1524 1527 1531 1535 1539 1543 1546 1549 1552 1554 1557 1558 1560 1562 1563 1564 1564 1565 1565 1565 1565 1564 1564
1520 1518 1526 1511 1495 1495 1498 1497 1496 1496 1495 1495 1495 1496 1498 1500 1503 1507 1510 1513 1517 1520 1525 1529 1533 1537 1541 1544 1547 1549 1552 1554 1556 1558 1560 1561 1562 1563 1563 1564 1564 1564 1563 1563
1523 1524 1518 1504 1494 1493 1497 1498 1493 1493 1493 1492 1493 1495 1498 1499 1501 1503 1506 1509 1513 1518 1522 1526 1530 1534 1538 1541 1544 1547 1549 1552 1554 1556 1557 1559 1560 1561 1561 1562 1562 1562 1562 1561
1519 1521 1523 1506 1491 1488 1493 1501 1491 1490 1491 1491 1492 1500 1499 1497 1499 1502 1505 1508 1511 1515 1519 1524 1527 1531 1535 1538 1541 1543 1546 1549 1551 1554 1555 1556 1558 1559 1559 1560 1560 1561 1560 1560
1515 1517 1512 1496 1489 1489 1505 1503 1491 1489 1489 1489 1490 1492 1493 1494 1497 1499 1502 1506 1509 1513 1516 1520 1524 1528 1531 1534 1537 1540 1544 1547 1549 1551 1553 1554 1556 1557 1557 1558 1558 1559 1559 1558
1514 1517 1513 1490 1490 1494 1494 1489 1489 1488 1487 1487 1488 1489 1491 1492 1495 1497 1500 1503 1507 1510 1514 1518 1521 1525 1528 1531 1534 1538 1541 1544 1546 1548 1550 1552 1553 1554 1555 1556 1556 1556 1556 1556
1501 1502 1491 1488 1488 1488 1487 1487 1487 1487 1487 1487 1488 1488 1490 1491 1493 1496 1498 1501 1504 1508 1511 1515 1519 1522 1525 1528 1532 1535 1538 1540 1543 1545 1547 1549 1550 1551 1552 1553 1553 1553 1553 1553
1493 1490 1487 1486 1486 1486 1486 1486 1487 1487 1486 1486 1487 1488 1489 1490 1492 1494 1497 1500 1503 1506 1509 1513 1516 1519 1522 1525 1529 1532 1535 1537 1540 1542 1544 1546 1547 1548 1549 1549 1550 1550 1550 1550
1491 1488 1486 1485 1485 1486 1486 1486 1486 1486 1486 1486 1486 1487 1489 1490 1491 1494 1496 1499 1502 1504 1507 1510 1513 1517 1520 1523 1526 1529 1532 1534 1537 1539 1541 1542 1544 1545 1546 1547 1547 1547 1547 1547
1489 1485 1485 1484 1483 1484 1485 1485 1485 1485 1486 1486 1486 1486 1487 1489 1491 1493 1495 1498 1500 1503 1506 1509 1512 1515 1518 1521 1523 1526 1528 1531 1533 1535 1537 1539 1540 1542 1542 1543 1544 1544 1544 1544
1481 1481 1482 1482 1482 1483 1483 1484 1484 1484 1484 1485 1485 1486 1486 1488 1490 1492 1494 1496 1499 1501 1504 1507 1510 1513 1515 1518 1521 1523 1525 1527 1529 1532 1533 1535 1536 1537 1538 1540 1540 1540 1540 1540
1479 1479 1480 1480 1481 1481 1482 1482 1482 1483 1483 1484 1484 1485 1486 1487 1489 1491 1493 1495 1498 1500 1503 1505 1507 1510 1513 1515 1518 1520 1522 1524 1526 1528 1530 1531 1532 1533 1534 1535 1536 1536 1536 1537
1476 1477 1478 1478 1479 1479 1480 1480 1480 1481 1481 1482 1483 1484 1485 1486 1487 1489 1492 1494 1496 1498 1500 1503 1505 1508 1510 1512 1514 1517 1519 1520 1522 1524 1526 1527 1529 1530 1531 1531 1532 1532 1532 1532
1474 1475 1475 1476 1476 1477 1477 1478 1478 1478 1479 1480 1481 1482 1484 1485 1486 1488 1490 1492 1493 1495 1497 1500 1502 1505 1507 1509 1511 1513 1515 1517 1519 1520 1522 1523 1524 1525 1526 1527 1527 1528 1528 1528
1471 1472 1472 1473 1474 1474 1475 1475 1476 1476 1477 1478 1479 1481 1482 1484 1485 1486 1488 1490 1491 1493 1495 1497 1499 1501 1503 1505 1507 1509 1511 1513 1514 1516 1517 1518 1520 1521 1522 1522 1523 1523 1523 1524
1468 1469 1470 1470 1471 1472 1473 1473 1474 1475 1475 1476 1477 1479 1480 1481 1482 1484 1485 1487 1489 1491 1493 1494 1496 1498 1500 1502 1503 1505 1506 1508 1509 1511 1512 1514 1515 1516 1517 1517 1518 1518 1518 1519
1465 1466 1467 1468 1469 1469 1470 1471 1471 1472 1473 1474 1475 1476 1477 1478 1480 1481 1483 1484 1486 1487 1489 1491 1493 1494 1496 1497 1499 1500 1502 1503 1505 1506 1508 1509 1510 1510 1511 1512 1512 1513 1513 1513
1462 1463 1464 1465 1466 1466 1467 1468 1468 1469 1470 1472 1472 1473 1474 1476 1477 1478 1480 1481 1482 1484 1485 1487 1489 1490 1492 1493 1495 1496 1497 1499 1500 1501 1503 1504 1504 1505 1506 1506 1507 1507 1507 1507
1459 1460 1461 1462 1462 1464 1464 1465 1465 1466 1467 1468 1469 1470 1471 1472 1474 1475 1476 1477 1479 1481 1482 1484 1485 1486 1488 1489 1491 1492 1493 1495 1496 1497 1498 1498 1499 1500 1500 1501 1501 1501 1501 1501
1456 1457 1458 1459 1459 1460 1461 1462 1463 1463 1464 1465 1466 1467 1468 1469 1471 1472 1473 1475 1476 1478 1479 1480 1481 1483 1484 1485 1486 1488 1489 1490 1491 1492 1492 1493 1494 1494 1494 1495 1495 1495 1495 1494
1455 1455 1456 1456 1457 1457 1458 1459 1460 1460 1461 1462 1463 1464 1465 1466 1467 1469 1470 1472 1473 1474 1475 1476 1478 1479 1480 1481 1482 1483 1484 1485 1486 1487 1488 1488 1489 1489 1489 1489 1489 1489 1488 1488
1453 1453 1454 1454 1454 1455 1455 1456 1457 1458 1459 1459 1460 1461 1462 1463 1465 1466 1467 1469 1470 1471 1472 1473 1474 1475 1476 1477 1478 1479 1480 1481 1481 1482 1483 1483 1483 1483 1483 1483 1483 1483 1482 1482
1451 1451 1451 1452 1452 1452 1453 1453 1454 1455 1456 1457 1458 1459 1460 1461 1462 1463 1464 1465 1467 1467 1468 1469 1471 1471 1472 1473 1474 1475 1475 1476 1476 1477 1477 1478 1478 1478 1478 1478 1477 1477 1476 1475
1449 1449 1449 1450 1450 1451 1451 1451 1452 1452 1453 1454 1455 1456 1457 1458 1459 1460 1461 1462 1463 1464 1465 1466 1467 1468 1468 1469 1470 1470 1471 1471 1471 1472 1472 1472 1472 1472 1472 1472 1471 1471 1470 1469
1446 1447 1447 1448 1448 1449 1449 1450 1450 1451 1451 1452 1452 1454 1455 1455 1456 1457 1458 1459 1460 1461 1462 1463 1464 1464 1465 1466 1466 1466 1466 1467 1467 1467 1467 1467 1467 1467 1466 1466 1466 1465 1464 1463